Regional Weather Roundup
Issued by NWS Charleston, SC

Current Version | Previous Version | Graphics & Text | Print | Product List | Glossary On
Versions: 1 2 3 4 5 6 7 8 9 10 11 12 13 14 15 16 17 18 19 20 21 22 23 24 25 26 27 28 29 30 31 32 33 34 35 36 37 38 39 40 41 42 43 44 45 46 47 48 49 50
092
ASUS42 KCHS 081527
RWRCHS

REGIONAL WEATHER ROUNDUP
NATIONAL WEATHER SERVICE CHARLESTON SC
1000 AM EST THU DEC 08 2016

NOTE: "FAIR" INDICATES FEW OR NO CLOUDS BELOW 12,000 FEET WITH NO
SIGNIFICANT WEATHER AND/OR OBSTRUCTIONS TO VISIBILITY.

NOT ALL STATIONS ARE QUALITY CONTROLLED. USE DATA WITH CAUTION...
ESPECIALLY DEWPOINT OBSERVATIONS.

SCZ027-030-031-034>040-042>050-081600-
...SOUTHEAST SOUTH CAROLINA...

CITY           SKY/WX    TMP DP  RH WIND       PRES   REMARKS
N CHARLESTON   PTSUNNY   56  51  84 W9        30.12S
WATERFRONT PRK   N/A     55  54  96 VRB3      30.11R
MOUNT PLEASANT CLOUDY    55  54  94 W5        30.13R
JOHNS ISLAND   CLOUDY    57  52  82 NW10      30.13S
PINOPOLIS        N/A     55  54  94 W7        30.04R
MONCKS CORNER  CLOUDY    54  52  94 CALM      30.13R
SUMMERVILLE    CLOUDY    57  55  94 SW5       30.14S
BEAUFORT MCAS  SUNNY     56  47  71 W9        30.15R
BEAUFORT ARPT  FAIR      55  46  71 NW15      30.14S
HILTON HEAD IS SUNNY     55  48  76 W9        30.14R
WALTERBORO     PTSUNNY   59  55  88 W7        30.14F
ALLENDALE      FAIR      54  46  76 VRB3      30.15R

...SOUTHERN MIDLANDS AND PEE DEE...

CITY           SKY/WX    TMP DP  RH WIND       PRES   REMARKS
GEORGETOWN     CLOUDY    54  52  94 W5        30.12S
KINGSTREE      CLOUDY    54  50  87 W7        30.13R
ORANGEBURG     SUNNY     56  46  69 W8        30.13R
BARNWELL       NOT AVBL
AIKEN          FAIR      52  43  71 NW8       30.17R
MANNING        CLOUDY    55  50  82 W3        30.13R
COLUMBIA       PTSUNNY   56  46  69 NW10      30.13R
SUMTER         PTSUNNY   57  48  72 W8        30.10R
FLORENCE       CLOUDY    55  51  86 W10       30.12R
MYRTLE BEACH   CLOUDY    55  50  82 NW8       30.13R
N MYRTLE BEACH CLOUDY    56  53  90 NW9       30.10F

$$

GAZ063-065-086>088-099>101-113>116-118-119-134>141-150-081600-
...SOUTHEAST GEORGIA...

CITY           SKY/WX    TMP DP  RH WIND       PRES   REMARKS
SAVANNAH ARPT  PTSUNNY   56  44  64 NW13      30.16S
HUNTER AAF     SUNNY     56  50  80 NW9       30.13S
FORT STEWART   SUNNY     55  43  65 NW8       30.16R
STATESBORO     SUNNY     55  45  71 NW8       30.17S
SYLVANIA       SUNNY    N/A N/A N/A NW10      30.17S
CLAXTON        FAIR      54  46  72 W8        30.19R

...CSRA...CENTRAL AND FAR SOUTHEAST GEORGIA...

CITY           SKY/WX    TMP DP  RH WIND       PRES   REMARKS
THOMSON        CLOUDY    51  45  81 NW3       30.22R
AUGUSTA-BUSH   SUNNY     53  43  68 W8        30.16R
AUGUSTA-DANIEL MOSUNNY   53  41  63 NW6       30.16R
SWAINSBORO     FAIR      52  41  66 NW8G16    30.19S
VIDALIA        MOSUNNY   54  45  71 NW9       30.20R
EASTMAN        FAIR      53  30  41 NW8G16    30.23F
HAZLEHURST     FAIR      55  42  61 NW3       30.20S
ALMA           CLOUDY    55  48  77 W8        30.20R
WAYCROSS       PTSUNNY   58  53  86 N9        30.21R
JESUP          PTSUNNY   55  52  88 NW13      30.20R
BAXLEY         FAIR      55  48  76 NW14      30.20R
BRUNSWICK      CLOUDY    54  52  94 W7        30.20R
SAINT SIMONS   MOSUNNY   55  47  74 NW12      30.18R

$$

SCZ027-028-034-036>038-045-046-048>050-GAZ119-141-081600-
...LAKE AND SUPPLEMENTAL COASTAL OBSERVATIONS...

STATION/POSITION TIME  TEMP    WIND        PRES    WAVE   SWELL
                       AIR SEA DIR/SP/G            HT/PER HT/PER/DIR
                 (UTC) (F)     (DEG/KT/KT) (MB)    (FT/S) (FT/S/D)
WINYAH BAY       1445   56     280/  3     1019.0S
LAKE MURRAY      1450   51     300/  3/ 10 1020.3R
ACE BASIN NERRS  1445   54     280/  4     1020.0S
FORT PULASKI     1500   54 62  320/ 14/ 17 1021.2
SAPELO ISLAND    1500   54     310/ 12     1022.0

$$

ANZ835-935-AMZ111-154-330-350-352-354-370-450-454-472-081600-
...C-MAN AND BUOY OBSERVATIONS...

STATION/POSITION TIME  TEMP    WIND        PRES    WAVE   SWELL
                       AIR SEA DIR/SP/G            HT/PER HT/PER/DIR
                 (UTC) (F)     (DEG/KT/KT) (MB)    (FT/S) (FT/S/D)
BUOY 41004       1450   65 74  290/ 12/ 16 1018.7R   2/ 7   2/ 90/ 7
BUOY 41008       1450   56 64  300/ 16/ 17 1021.0R   3/ 4   2/360/11
FOLLY BEACH CMAN 1500   56     280/  9/ 11 1020.7R
CAPERS NEARSHORE 1508   56 60  290/ 12/ 16 1019.8R
FRIPP NEARSHORE  1508   56 62  310/ 12/ 17 1020.3R


STATION/POSITION TIME  TEMP    WIND        PRES    WAVE   SWELL
                       AIR SEA DIR/SP/G            HT/PER HT/PER/DIR
                 (UTC) (F)     (DEG/KT/KT) (MB)    (FT/S) (FT/S/D)
5E ST. MARYS GA  1500      65                N/A     2/12
FRYING PAN BUOY  1510   62 73  300/ 14/ 16 1018.9
BUOY 41025       1450   60 78  280/  6/  8 1017.7R   4/10   5/ 60/10
CAPE LOOKOUT NC  1500   59     260/ 13/ 16 1017.8R
BUOY 41002       1450   73 74  260/  8/ 10 1018.6R   5/10   5/ 10/10
BUOY 41010       NOT AVBL
ST AUGUSTINE FL  1500   56 66  320/  9/ 11 1023.2R


$$




USA.gov is the U.S. government's official web portal to all federal, state and local government web resources and services.